{"data":{"norad_id":53255,"intl_designator":"2022-086P","name":"STARLINK-4142","alt_names":[],"object_type":"PAYLOAD","status":"ACTIVE","operator":null,"country":"US","launch_date":"2022-07-24","launch_site_code":"AFETR","launch_vehicle":null,"mission":null,"orbit_class":"UNKNOWN","rcs_meters":null,"size_class":null,"mass_kg":null,"dimensions":null,"purposes":["comms"],"wikipedia_slug":null,"has_3d_model":false,"image_url":null,"decayed_at":null,"tle_current":{"epoch":"2026-05-24T14:27:22.680576Z","epoch_age_seconds":116216,"freshness":"FRESH","line1":"1 53255U 22086P   26144.60234584 -.00000095  00000+0  12106-4 0  9995","line2":"2 53255  53.2147 213.3362 0001186  87.1400 272.9728 15.08838432212521","mean_motion":15.08838432,"eccentricity":0.0001186,"inclination_deg":53.2147,"raan_deg":213.3362,"arg_perigee_deg":87.14,"mean_anomaly_deg":272.9728,"bstar":1.2106e-5,"rev_number":21252,"period_min":95.437653857428,"perigee_km":538.92772053442,"apogee_km":540.56864289952,"semimajor_km":6917.885181717,"source":"CELESTRAK","updated_at":"2026-05-25T13:38:17.362686Z"}}}